EW2998 Weather Reports


Display with metric or nautical units.
time (UTC)temp
F
wind
direction
speed
MPH
gust
MPH
rain 1hr
in
rain 24hr
in
rain mn
in
humidity
%
barometer
mb
20260505003503 64 193 2.0 6.0 0.00 0.00 0.00 52 1008.2
20260505003003 64 190 2.0 6.0 0.00 0.00 0.00 52 1008.3
20260505002503 64 189 1.0 4.0 0.00 0.00 0.00 51 1008.2
20260505002003 64 189 2.0 7.0 0.00 0.00 0.00 49 1008.2
20260505001505 65 193 3.0 7.0 0.00 0.00 0.00 49 1008.1
20260505001003 65 194 2.0 7.0 0.00 0.00 0.00 48 1008.1
20260505000004 65 189 2.0 7.0 0.00 0.00 0.00 47 1007.9
20260504235003 66 193 2.0 5.0 0.00 0.00 0.00 47 1008.0
20260504234003 66 191 2.0 6.0 0.00 0.00 0.00 46 1007.9
20260504233502 67 187 3.0 7.0 0.00 0.00 0.00 45 1007.9
20260504233003 68 183 3.0 7.0 0.00 0.00 0.00 44 1007.9
20260504232503 68 184 3.0 8.0 0.00 0.00 0.00 44 1007.9
20260504232005 69 190 2.0 8.0 0.00 0.00 0.00 43 1008.0
20260504231503 69 186 3.0 8.0 0.00 0.00 0.00 42 1008.0
20260504231003 69 184 3.0 8.0 0.00 0.00 0.00 42 1008.0
20260504230503 70 184 3.0 9.0 0.00 0.00 0.00 42 1008.1
20260504230003 70 188 3.0 9.0 0.00 0.00 0.00 41 1008.0
20260504225503 70 195 3.0 8.0 0.00 0.00 0.00 42 1008.0
20260504225003 70 191 3.0 8.0 0.00 0.00 0.00 41 1008.0
20260504223503 71 193 2.0 9.0 0.00 0.00 0.00 42 1008.1
20260504223003 71 191 3.0 6.0 0.00 0.00 0.00 41 1008.1
20260504222004 71 181 3.0 12.0 0.00 0.00 0.00 41 1008.1
20260504221003 71 189 3.0 10.0 0.00 0.00 0.00 41 1008.0
20260504220505 71 181 4.0 10.0 0.00 0.00 0.00 41 1008.0
20260504215503 71 183 4.0 13.0 0.00 0.00 0.00 39 1008.0
20260504215003 71 181 3.0 9.0 0.00 0.00 0.00 39 1008.0
20260504214003 71 192 4.0 9.0 0.00 0.00 0.00 40 1008.0
20260504213503 71 186 4.0 11.0 0.00 0.00 0.00 39 1008.0
20260504213003 71 179 4.0 11.0 0.00 0.00 0.00 39 1008.2
20260504212503 72 184 4.0 12.0 0.00 0.00 0.00 40 1008.1
20260504212003 72 187 4.0 12.0 0.00 0.00 0.00 39 1008.1
20260504211503 72 182 4.0 9.0 0.00 0.00 0.00 38 1008.1
20260504211005 72 179 5.0 14.0 0.00 0.00 0.00 39 1008.0
20260504210503 72 190 5.0 14.0 0.00 0.00 0.00 39 1008.0
20260504210004 72 200 4.0 11.0 0.00 0.00 0.00 38 1008.0
20260504205504 73 205 3.0 8.0 0.00 0.00 0.00 39 1007.9
20260504205003 72 195 4.0 11.0 0.00 0.00 0.00 41 1008.0
20260504204503 72 188 4.0 11.0 0.00 0.00 0.00 39 1008.0
20260504204003 73 186 3.0 10.0 0.00 0.00 0.00 38 1008.0
20260504203503 73 183 4.0 10.0 0.00 0.00 0.00 39 1007.9
20260504203003 73 184 4.0 10.0 0.00 0.00 0.00 39 1007.9
20260504202503 73 183 4.0 9.0 0.00 0.00 0.00 40 1008.0
20260504202003 73 188 4.0 8.0 0.00 0.00 0.00 39 1008.1
20260504201003 73 184 4.0 10.0 0.00 0.00 0.00 38 1008.2
20260504200503 73 193 4.0 10.0 0.00 0.00 0.00 39 1008.3
20260504200003 73 204 3.0 9.0 0.00 0.00 0.00 38 1008.4
20260504195503 73 188 3.0 11.0 0.00 0.00 0.00 41 1008.6
20260504195003 73 185 3.0 11.0 0.00 0.00 0.00 41 1008.6
20260504194503 73 183 4.0 9.0 0.00 0.00 0.00 40 1008.6
20260504194003 72 182 4.0 9.0 0.00 0.00 0.00 39 1008.8
20260504193503 73 195 3.0 9.0 0.00 0.00 0.00 39 1008.8
20260504193003 73 196 3.0 9.0 0.00 0.00 0.00 41 1008.9
20260504192504 73 185 2.0 6.0 0.00 0.00 0.00 41 1009.0
20260504192005 73 189 3.0 10.0 0.00 0.00 0.00 41 1009.0
20260504191503 73 186 4.0 10.0 0.00 0.00 0.00 40 1009.1
20260504191003 73 199 4.0 11.0 0.00 0.00 0.00 38 1009.3
20260504190504 73 213 3.0 11.0 0.00 0.00 0.00 40 1009.5
20260504190004 73 206 3.0 7.0 0.00 0.00 0.00 38 1009.3
20260504185503 72 203 4.0 8.0 0.00 0.00 0.00 39 1009.5
20260504185003 72 213 4.0 11.0 0.00 0.00 0.00 37 1009.6
20260504184503 72 216 4.0 11.0 0.00 0.00 0.00 40 1009.6
20260504184003 72 208 4.0 11.0 0.00 0.00 0.00 39 1009.6
20260504182503 72 195 3.0 12.0 0.00 0.00 0.00 39 1009.7
20260504182004 72 211 4.0 12.0 0.00 0.00 0.00 39 1009.6
20260504181503 71 215 4.0 10.0 0.00 0.00 0.00 37 1009.7
20260504181003 72 198 4.0 10.0 0.00 0.00 0.00 41 1009.8
20260504180503 72 195 4.0 8.0 0.00 0.00 0.00 40 1010.0
20260504180003 71 198 4.0 8.0 0.00 0.00 0.00 39 1009.9
20260504175503 71 203 4.0 15.0 0.00 0.00 0.00 42 1009.9
20260504175003 71 220 4.0 15.0 0.00 0.00 0.00 38 1010.1
20260504174504 71 220 3.0 11.0 0.00 0.00 0.00 39 1010.2
20260504174004 71 223 4.0 13.0 0.00 0.00 0.00 41 1010.2
20260504173503 70 216 4.0 13.0 0.00 0.00 0.00 39 1010.3
20260504173003 71 203 3.0 11.0 0.00 0.00 0.00 40 1010.3
20260504172505 70 200 3.0 11.0 0.00 0.00 0.00 39 1010.4
20260504172004 70 218 3.0 10.0 0.00 0.00 0.00 39 1010.5
20260504171003 71 197 2.0 8.0 0.00 0.00 0.00 43 1010.6
20260504170503 71 189 3.0 8.0 0.00 0.00 0.00 41 1010.8
20260504151003 65 251 2.0 7.0 0.00 0.00 0.00 45 1012.0
20260504150503 65 240 3.0 8.0 0.00 0.00 0.00 44 1012.0
20260504141003 61 211 3.0 8.0 0.00 0.00 0.00 53 1012.2
20260504100503 41 0 0.0 0.0 0.00 0.00 0.00 73 1013.0
20260504082003 42 0 0.0 0.0 0.00 0.00 0.00 67 1013.1
20260504081503 43 0 0.0 0.0 0.00 0.00 0.00 68 1012.9
20260504081003 43 326 0.0 1.0 0.00 0.00 0.00 67 1013.0
20260504080503 43 326 0.0 1.0 0.00 0.00 0.00 66 1012.9
20260504050504 44 0 0.0 0.0 0.00 0.00 0.00 65 1013.2
20260504050004 44 0 0.0 0.0 0.00 0.00 0.00 65 1013.2
20260504045503 44 0 0.0 0.0 0.00 0.00 0.00 65 1013.4
20260504045003 44 0 0.0 0.0 0.00 0.00 0.00 64 1013.3
20260504044003 45 0 0.0 0.0 0.00 0.00 0.00 63 1013.3
20260504043003 45 0 0.0 0.0 0.00 0.00 0.00 61 1013.2
20260504042003 45 0 0.0 0.0 0.00 0.00 0.00 61 1013.2
20260504041003 46 0 0.0 0.0 0.00 0.00 0.00 61 1013.1
20260504040504 46 0 0.0 0.0 0.00 0.00 0.00 61 1013.0
20260504040004 46 0 0.0 0.0 0.00 0.00 0.00 61 1013.0
20260504035504 46 0 0.0 0.0 0.00 0.00 0.00 61 1012.9
20260504034503 46 0 0.0 0.0 0.00 0.00 0.00 61 1012.9
20260504033504 46 0 0.0 0.0 0.00 0.00 0.00 61 1012.9
20260504033005 46 0 0.0 0.0 0.00 0.00 0.00 60 1012.9
20260504032504 46 0 0.0 0.0 0.00 0.00 0.00 59 1012.9
20260504032004 46 345 0.0 1.0 0.00 0.00 0.00 58 1012.9
20260504031503 47 345 0.0 1.0 0.00 0.00 0.00 58 1012.9
20260504031003 47 0 0.0 0.0 0.00 0.00 0.00 58 1012.9
20260504025506 47 346 0.0 1.0 0.00 0.00 0.00 57 1012.7
20260504025003 47 346 0.0 1.0 0.00 0.00 0.00 58 1012.8
20260504024503 47 0 0.0 0.0 0.00 0.00 0.00 58 1012.7
20260504024003 47 0 0.0 0.0 0.00 0.00 0.00 57 1012.6
20260504023503 47 0 0.0 0.0 0.00 0.00 0.00 57 1012.6
20260504022501 48 0 0.0 0.0 0.00 0.00 0.00 57 1012.7
20260504022002 48 0 0.0 0.0 0.00 0.00 0.00 57 1012.7
20260504021502 48 0 0.0 0.0 0.00 0.00 0.00 57 1012.7
20260504021002 48 0 0.0 0.0 0.00 0.00 0.00 57 1012.7
20260504020502 48 0 0.0 0.0 0.00 0.00 0.00 56 1012.7
20260504020004 48 0 0.0 0.0 0.00 0.00 0.00 56 1012.6
20260504014502 48 0 0.0 0.0 0.00 0.00 0.00 56 1012.5
20260504014003 48 0 0.0 0.0 0.00 0.00 0.00 55 1012.5
20260504013502 49 345 0.0 1.0 0.00 0.00 0.00 54 1012.5
20260504013002 49 345 0.0 1.0 0.00 0.00 0.00 54 1012.5
20260504012002 49 0 0.0 0.0 0.00 0.00 0.00 52 1012.3
20260504011502 49 346 0.0 1.0 0.00 0.00 0.00 54 1012.2
20260504011002 49 346 0.0 1.0 0.00 0.00 0.00 55 1012.1
20260504010503 49 346 0.0 1.0 0.00 0.00 0.00 53 1012.1
20260504010003 50 346 0.0 1.0 0.00 0.00 0.00 52 1012.2
20260504005502 50 346 0.0 1.0 0.00 0.00 0.00 51 1012.2
20260504005002 50 346 0.0 1.0 0.00 0.00 0.00 51 1012.1
20260504004502 51 0 0.0 0.0 0.00 0.00 0.00 50 1012.0